Location: Newark
(44.4156°N, 12.1972°E)
Time: 18:48:35
(UTC+00:00)

STARLINK-1122 - Pass Details

Date: 28 January 2020
Orbit: 349 x 350 km, 53.0° (Epoch: 18 February)

Event Time Altitude Azimuth Distance (km) Brightness Sun altitude
Rises 17:28:36 0° 307° (NW) 2,159 7.3 -13.4°
Reaches altitude 10° 17:30:49 10° 321° (NW) 1,315 5.9 -13.8°
Maximum altitude 17:33:19 25° 20° (NNE) 766 4.1 -14.2°
Enters shadow 17:33:38 24° 31° (NNE) 779 4.0 -14.3°
